Location: Prague
(50.0830°N, 14.4670°E)
Time: 02:30:25
(UTC+01:00)

AO-7 - Pass Details

Date: 11 December 2021
Orbit: 1440 x 1459 km, 101.9° (Epoch: 28 January)

Event Time Altitude Azimuth Distance (km) Brightness Sun altitude
Rises 03:21:10 0° 23° (NNE) 4,552 ? -41.9°
Reaches altitude 10° 03:24:22 10° 33° (NNE) 3,572 ? -41.4°
Maximum altitude 03:31:44 34° 95° (E) 2,222 ? -40.2°
Drops below altitude 10° 03:39:04 10° 158° (SSE) 3,566 ? -39.1°
Sets 03:42:13 0° 167° (SSE) 4,543 ? -38.6°
